Regional Weather Roundup
Issued by NWS

Home | Current Version | Previous Version | Graphics & Text | Print | Product List | Glossary On
Versions: 1 2 3 4 5 6 7 8 9 10 11 12 13 14 15 16 17 18 19 20 21 22 23 24 25 26 27 28 29 30 31 32 33 34 35 36 37 38 39 40 41 42 43 44 45 46 47 48 49 50
000
ASUS45 KABQ 191101
RWRNM
WEATHER ROUNDUP FOR NEW MEXICO
NATIONAL WEATHER SERVICE ALBUQUERQUE NM
500 AM MDT SUN APR 19 2015

NOTE: "FAIR" MEANS FEW OR NO CLOUDS BELOW 12,000 FEET AGL WITH NO
       SIGNIFICANT WEATHER OR OBSTRUCTIONS TO VISION.

      THIS PRODUCT IS RELEASED AS TWO VERSIONS.  ONE VERSION NEAR
      THE TOP OF THE HOUR CONTAINING PRELIMINARY DATA FROM ALBUQUERQUE
      AND OTHER STATIONS.  A FINAL VERSION WITH ADDITIONAL DATA IS
      ISSUED ABOUT 10 MINUTES AFTER THE HOUR.

NMZ501-503-504-510>518-191200-
NORTHWEST PLATEAU/NORTHCENTRAL MOUNTAINS

CITY           SKY/WX    TMP DP  RH WIND       PRES   REMARKS
FARMINGTON     CLEAR     38  34  85 SW9       30.02R WCI  31
SANTA FE       CLEAR     36  27  69 N10       29.98S WCI  28
ANGEL FIRE     FAIR      20  17  89 SE3       30.05S

$$
NMZ402-403-502-505>509-191200-
WESTCENTRAL MOUNTAINS/SOUTHWEST MOUNTAINS

CITY           SKY/WX    TMP DP  RH WIND       PRES   REMARKS
GALLUP         MOCLDY    32  23  69 CALM      30.08S
SILVER CITY      N/A     39  18  41 NW8       30.05S WCI  34

$$
NMZ407-409-411-412-191200-
SOUTHERN DESERTS

CITY           SKY/WX    TMP DP  RH WIND       PRES   REMARKS
DEMING         CLEAR     47  18  31 W8        30.00S
ALAMOGORDO     CLEAR     46  28  49 CALM      29.96R
T OR C         CLEAR     52  23  32 NW15      29.98R

$$
NMZ519>523-191200-
CENTRAL VALLEYS/CENTRAL HIGHLANDS

CITY           SKY/WX    TMP DP  RH WIND       PRES   REMARKS
ALBUQUERQUE    PTCLDY    48  31  51 NW15      30.00S
DOUBLE EAGLE   PTCLDY    42  31  65 NW10      30.02S
CLINES CORNERS CLEAR     33  24  69 NW8       29.99R WCI  26
BELEN          FAIR      43  27  53 NW6       30.02R
SOCORRO        NOT AVBL

$$
NMZ524>526-539-540-191200-
SOUTHCENTRAL MOUNTAINS

CITY           SKY/WX    TMP DP  RH WIND       PRES   REMARKS
RUIDOSO        NOT AVBL

$$
NMZ527>531-191200-
NORTHEAST HIGHLANDS/NORTHEAST PLAINS

CITY           SKY/WX    TMP DP  RH WIND       PRES   REMARKS
LAS VEGAS      CLEAR     30  24  78 NE5       30.00R WCI  25
RATON          PTCLDY    36  27  69 N5        29.99R WCI  32
CLAYTON        MOCLDY    42  35  76 NW18G26   29.90F

$$
NMZ532>537-191200-
EASTCENTRAL PLAINS

CITY           SKY/WX    TMP DP  RH WIND       PRES   REMARKS
TUCUMCARI      CLEAR     42  28  57 VRB5      29.93R
CANNON AFB     NOT AVBL
CLOVIS AIRPORT CLEAR     45  27  49 N17       29.91S

$$
NMZ028-029-538-191200-
SOUTHEAST PLAINS

CITY           SKY/WX    TMP DP  RH WIND       PRES   REMARKS
ROSWELL        CLEAR     46  33  60 N8        29.91R
ARTESIA        CLEAR     50  34  53 W13       29.90R
CARLSBAD       CLEAR     50  34  54 SW10      29.87S
HOBBS          CLEAR     48  34  57 NW9       29.89R


$$



USA.gov is the U.S. government's official web portal to all federal, state and local government web resources and services.